Location: Harmony
(28.2000°N, 81.1500°W)
Time: 13:16:17
(UTC-04:00)

Daily predictions for brighter satellites

Satellite Brightness Start Highest point End
(mag) Time Altitude Azimuth Time Altitude Azimuth Time Altitude Azimuth
Cosmos 1707 2.9 20:49:30 10° S 20:53:22 80° W 20:57:18 10° N
ASTEX 1 3.6 20:50:20 10° S 20:55:13 79° W 21:00:07 10° N
Tiangong 1 3.9 20:55:51 10° WNW 20:57:38 15° NNW 20:59:24 10° NNE
Cosmos 2219 Rocket 2.4 20:52:33 10° N 20:58:07 56° ENE 21:03:38 10° SSE
Cosmos 2333 Rocket 2.6 20:54:38 10° N 21:00:03 46° ENE 21:05:25 10° SE
DELTA 2 R/B (1) 3.7 20:57:08 10° WNW 21:02:46 82° NNE 21:08:10 11° ESE
Orbus 7S? 4.4 20:58:37 10° NW 21:03:27 40° WSW 21:06:15 10° S
Aureole 2 Rocket 3.8 21:02:37 10° N 21:06:07 29° ENE 21:09:01 12° SE
Envisat 3.5 21:02:23 10° SE 21:07:07 41° ENE 21:11:52 10° N
H-2A R/B 4.0 21:05:12 10° S 21:08:44 40° W 21:12:20 10° NNW
Palapa B4 Rocket 4.4 21:07:11 10° SW 21:10:05 21° S 21:12:53 12° SE
Meteor 1-29 3.6 21:11:47 10° NNE 21:14:56 33° E 21:18:05 10° SSE
USA 186 0.9 21:13:25 10° SSE 21:15:55 84° ENE 21:18:15 10° N
Cosmos 1140 Rocket 3.4 21:12:34 10° S 21:17:44 77° ESE 21:22:53 10° NNE
Cosmos 2082 4.1 21:12:12 10° SSW 21:17:46 70° WNW 21:23:22 10° NNE
NOSS 0 Rocket 4.0 21:14:25 10° NNW 21:20:38 68° ENE 21:26:16 13° SSE
Cosmos 2297 Rocket 2.7 21:18:50 10° SSW 21:24:24 64° WNW 21:30:02 10° NNE
Meteor 2-15 4.4 21:18:31 10° S 21:24:30 70° E 21:30:32 10° NNE
Resurs 01 Rocket 2.5 21:21:45 10° S 21:26:00 50° W 21:30:17 10° NNW
H-2A R/B 4.0 20:59:30 10° WNW 21:29:35 37° SW 21:34:21 12° SSE
Cosmos 1939 Rocket 3.0 21:27:16 17° SSE 21:30:07 53° ENE 21:34:03 10° N
H-2A ROCKET BODY 2.2 21:28:40 10° SSW 21:30:48 24° SE 21:32:27 19° ESE
Cosmos 1867 3.7 21:26:56 10° S 21:32:11 53° ESE 21:37:29 10° NE
Cosmos 1340 Rocket 2.7 21:36:47 10° S 21:40:46 82° E 21:44:48 10° N
Delta 2 Rocket 4.3 21:36:23 10° SW 21:41:49 48° SSE 21:47:22 10° ENE
Spot 1 3.9 21:42:22 24° SSE 21:44:41 67° ENE 21:48:47 10° N
ATLAS 5 CENTAUR R/B 2.1 21:40:43 10° SW 21:45:13 66° WNW 21:50:00 10° NNE
SJ-11-01 4.3 21:44:54 18° SSE 21:48:27 90° NW 21:53:13 10° NNW
Cosmos 1850 Rocket 3.9 21:44:14 10° SSW 21:49:23 87° ESE 21:54:35 10° NNE
Cosmos 1980 3.7 21:44:08 10° NNW 21:49:50 83° WSW 21:53:47 21° SSE
SPOT 5 4.4 21:49:06 17° E 21:50:07 19° ENE 21:53:29 10° NNE
Cosmos 2084 3.6 21:47:32 10° SW 21:51:39 68° WNW 21:55:34 10° NNE
YAOGAN 6 2.5 21:50:59 37° SSE 21:52:15 65° ENE 21:55:52 10° N
Skynet4D Del rocket 3.8 21:47:45 10° W 21:53:38 74° S 21:57:37 25° ESE
Helios 1A 3.1 21:52:06 22° S 21:54:44 74° WSW 21:58:53 10° NNW
CZ-4B DEB 2.4 21:54:45 55° SSE 21:55:19 87° ENE 21:58:17 10° N
Palapa 6 Rocket 3.5 21:51:53 10° WSW 21:56:42 42° S 21:57:44 36° SE
GPS 2-05 Rocket1 3.7 21:54:13 10° SW 21:56:03 29° SSW 21:56:03 29° SSW
Cosmos 1605 Rocket 4.2 21:53:00 10° N 21:59:15 73° W 22:05:02 13° S
Cosmos 2237 Rocket 2.3 21:54:36 10° NNW 22:00:12 72° WSW 22:03:42 24° S
CZ-3B R/B 4.2 21:58:08 10° WSW 22:00:21 43° NW 22:05:33 10° NNE
Helios 1B rocket 4.0 21:56:39 10° N 22:00:29 37° WNW 22:04:17 10° SW
H-2A R/B 3.7 22:00:47 18° E 22:01:41 19° ENE 22:05:20 10° NNE
USA 234 3.4 21:55:50 10° NE 22:02:22 77° NW 22:08:53 10° SW
ERS-1 Rocket 3.1 22:01:42 35° SE 22:03:34 54° ENE 22:08:28 10° N
Cosmos 1842 Rocket 4.3 22:00:59 10° NNW 22:05:13 50° W 22:08:11 18° SSW
Atlas Centaur 2 1.1 22:02:14 10° WNW 22:05:49 66° N 22:06:40 46° ENE
USA 142 4.0 21:58:30 10° W 22:06:33 88° S 22:08:05 37° E
Sakura Rocket 4.0 22:01:57 10° W 22:10:18 87° S 22:14:11 24° E
Cosmos 1674 2.5 22:12:38 53° S 22:13:27 88° W 22:17:14 10° N
Cosmos 1802 Rocket 4.4 22:08:52 10° N 22:14:40 43° E 22:16:09 37° ESE
Cosmos 1818 4.4 22:10:03 10° N 22:15:02 36° ENE 22:16:16 32° E
OAO 3 Rocket 4.0 22:11:50 10° W 22:16:02 33° SSW 22:16:41 32° SSW
Cosmos 1908 3.4 22:16:33 10° N 22:20:03 55° ENE 22:20:03 55° ENE
ARGOS 3.5 22:20:18 42° ESE 22:21:25 49° ENE 22:26:38 10° N
Cosmos 1408 Rocket 3.4 22:23:35 66° E 22:23:38 66° E 22:27:55 10° NNE
SL-16 R/B 2.2 22:18:04 10° NNW 22:23:44 69° ENE 22:25:09 49° SE
MetOp-A 4.1 22:22:20 48° SE 22:23:47 70° ENE 22:29:06 10° N
KORONAS-FOTON 3.7 22:24:13 74° NE 22:24:13 74° NE 22:27:45 10° N
SEDSat Delta rocket 3.2 22:20:16 10° W 22:24:14 48° SSW 22:24:14 48° SSW
Meteor 2-17 Rocket 4.4 22:21:06 10° N 22:27:15 72° E 22:29:09 46° SSE
Cosmos 1356 Rocket 3.9 22:27:26 37° SW 22:28:54 60° W 22:33:06 10° N
Cosmos 1076 Rocket 4.0 22:27:30 33° SSW 22:29:14 58° W 22:33:33 10° N
NOSS 3-4 (A) 3.9 22:23:15 10° NNW 22:30:31 79° WSW 22:33:42 39° SSE
NOSS 3-4 (C) 3.9 22:23:20 10° NNW 22:30:36 80° WSW 22:33:47 39° SSE
Terra 3.7 22:36:22 17° ENE 22:36:22 17° ENE 22:38:40 10° NNE
DMSP B5D2-2 4.5 22:35:50 10° NNE 22:40:08 45° ENE 22:40:08 45° ENE
Cosmos 2333 Rocket 4.5 22:40:24 10° WNW 22:43:49 17° W 22:47:14 10° SW
Cosmos 2016 Rocket 3.9 22:40:29 10° N 22:46:42 70° E 22:47:32 62° SE
Cosmos 2221 3.6 22:43:52 10° NNW 22:47:57 40° W 22:48:41 37° WSW
Cosmos 2208 Rocket 4.0 22:48:43 10° NNW 22:54:05 78° WSW 22:54:24 74° SW
SL-08 RB Rocket 3.9 22:56:03 69° NNW 22:56:03 69° NNW 23:00:06 10° NNW
Cosmos 1486 Rocket 4.3 22:57:03 53° NE 22:57:03 53° NE 23:01:15 10° NNE
SPOT 1/Viking Rocket 3.5 22:56:35 70° NE 22:56:35 70° NE 23:01:26 10° N
YAOGAN 11 4.5 22:58:18 63° WNW 22:58:18 63° WNW 23:02:21 10° NNW
RESURS DK-1 4.3 22:57:14 10° N 22:59:21 23° NNE 22:59:21 23° NNE
EO 1 Delta rocket 4.0 23:04:01 69° N 23:04:01 69° N 23:08:03 10° N
Cosmos 1242 Rocket 4.4 23:00:01 10° NNW 23:02:30 30° WNW 23:02:30 30° WNW
Meteor 2-2 Rocket 4.2 23:01:35 10° N 23:07:11 74° ENE 23:07:11 74° ENE
Milstar 3 Cent rocket 4.0 23:04:22 10° W 23:12:59 68° SSW 23:18:44 44° SE
H-2A R/B 4.0 23:17:20 22° NNE 23:17:20 22° NNE 23:19:13 10° N
Cosmos 2228 Rocket 4.3 23:11:30 10° N 23:14:28 40° N 23:14:28 40° N
Cosmos 2263 Rocket 2.7 23:21:43 51° NNE 23:21:43 51° NNE 23:25:52 10° NNE
Cosmos 1447 Rocket 4.5 23:24:35 76° NE 23:24:35 76° NE 23:30:29 10° N
Delta 2 Rocket 4.5 23:18:59 10° W 23:24:42 61° NNW 23:25:01 60° N
SPOT 5 4.3 23:28:20 32° W 23:28:20 32° W 23:32:13 10° NW
Lacrosse 5 3.3 23:34:50 10° NNW 23:38:08 33° N 23:38:08 33° N
H-2A R/B 3.2 23:41:25 38° W 23:41:25 38° W 23:45:42 10° NNW
